Wind_Speed
24 30 34 37 39 36 34 32 30 30 28 30 30 31 33 34 33 33 30 30 34 32 31 31 33 32 34 34 33 33 36 29 25 23 20 24 22 24 34 31 32 30 24 25 24
32 34 36 40 40 39 36 33 33 32 31 30 30 31 33 33 34 35 34 35 36 34 35 35 34 34 36 36 38 37 35 30 30 28 27 29 27 23 26 35 35 34 29 27 27
32 34 38 39 40 39 34 34 35 31 31 31 32 33 35 34 34 34 34 32 32 35 35 37 36 38 38 38 38 38 37 32 33 33 32 33 30 30 24 29 38 36 35 31 28
33 37 38 39 37 36 33 33 33 33 32 32 30 31 34 32 35 35 34 34 33 33 36 37 36 36 37 37 39 40 37 34 35 37 37 35 34 32 31 26 35 39 38 38 35
34 38 37 38 36 34 33 33 32 32 32 30 30 33 37 35 33 34 34 33 34 34 34 35 36 34 35 34 36 38 38 36 34 36 38 38 37 36 33 31 27 38 39 41 40
35 37 37 36 33 33 34 34 31 33 33 33 33 33 37 35 33 35 36 35 35 34 33 32 33 34 33 34 36 38 36 34 33 35 38 40 39 40 35 38 34 29 41 42 42
36 37 37 33 32 32 32 33 31 32 32 33 33 31 34 31 30 30 30 31 32 30 31 31 31 32 32 34 35 36 36 35 34 35 38 41 41 40 38 40 39 35 32 43 44
38 38 35 33 31 32 30 28 28 31 30 29 27 27 29 26 24 22 22 24 24 25 25 25 27 28 31 33 36 37 39 38 36 38 38 41 38 43 43 44 43 39 35 40 47
38 36 33 32 29 30 28 27 28 30 30 29 26 26 25 25 23 22 20 21 24 24 22 23 25 26 29 32 35 36 38 39 40 41 43 43 44 48 48 48 49 46 42 36 44
40 34 32 32 29 28 26 26 27 29 28 26 24 25 24 25 26 24 21 20 20 22 22 24 24 26 28 31 34 37 39 40 41 41 44 44 52 47 52 52 53 51 48 43 39
35 31 30 29 27 25 25 24 25 26 29 29 27 25 24 25 25 24 24 24 24 25 25 26 26 27 29 32 34 35 37 41 41 39 44 45 52 48 50 51 55 55 53 50 46
33 29 29 27 24 23 19 19 24 27 32 32 30 29 28 27 27 29 28 28 27 26 28 28 27 26 28 31 32 34 36 37 34 33 41 44 53 57 51 53 56 58 56 54 50
29 28 27 22 21 16 16 22 26 31 34 32 28 26 26 24 23 24 25 25 24 25 25 26 27 28 29 33 33 30 27 30 34 35 38 42 53 52 50 53 58 59 60 58 55
28 26 23 19 15 14 17 20 26 30 33 26 27 26 24 23 24 24 23 23 24 23 22 22 24 27 28 27 30 31 35 39 40 46 48 49 54 51 52 52 56 63 63 64 60
27 25 19 16 14 15 17 19 25 30 31 32 28 28 27 26 25 24 24 23 24 24 21 22 22 23 26 30 35 38 42 45 48 49 53 51 60 55 54 55 49 60 66 66 65
27 21 16 13 12 14 15 19 24 28 30 31 30 28 28 29 28 26 22 21 22 22 20 21 24 25 28 30 34 37 41 44 48 53 65 56 63 61 57 55 55 57 67 68 69
26 19 15 13 11 13 13 18 22 24 27 29 28 27 27 28 28 25 22 20 22 21 17 19 20 23 27 30 32 38 44 48 53 55 57 48 52 57 52 58 56 56 64 70 68
25 17 14 12 9 10 12 18 21 23 24 26 28 26 25 25 26 24 22 19 17 19 17 18 15 16 19 23 30 33 33 35 39 41 42 41 53 55 58 62 67 54 61 70 70
24 17 14 13 10 11 13 16 20 22 24 25 26 28 28 27 25 23 21 15 15 15 17 20 16 20 24 26 31 38 29 29 31 33 37 38 17 21 27 35 48 48 53 64 67
23 16 15 15 14 13 15 17 19 22 26 28 29 28 28 27 25 24 20 13 13 15 17 19 17 19 21 24 22 21 15 13 16 20 17 14 17 22 22 15 29 41 42 54 60
20 15 14 14 14 12 14 14 18 22 26 29 31 27 27 28 26 25 19 12 11 15 16 19 18 21 15 21 12 9 10 10 15 15 17 14 15 21 13 20 24 23 32 45 48
17 15 14 15 14 11 14 13 17 22 26 30 32 28 25 26 25 25 21 10 8 13 14 14 16 20 18 15 10 10 8 13 8 12 16 19 28 16 15 23 30 22 27 34 39
16 17 16 16 13 10 14 12 16 23 27 30 31 26 23 24 24 24 24 11 7 13 13 11 13 18 13 12 15 17 19 26 26 19 16 15 27 16 6 16 21 29 29 30 32
18 19 18 18 14 11 15 12 14 22 25 29 26 20 20 23 23 24 23 14 7 11 13 13 13 17 19 17 19 20 27 28 27 22 19 16 26 12 14 21 23 21 25 23 26
21 22 20 18 14 12 13 11 12 19 22 24 20 17 18 21 22 23 24 16 6 10 12 10 10 13 16 16 20 20 22 23 12 11 11 11 10 14 19 18 10 19 22 23 23
23 23 22 22 17 14 13 11 10 16 18 21 16 15 16 19 20 21 23 19 5 9 10 8 8 11 15 16 18 20 18 11 12 11 11 10 5 8 10 6 2 3 6 10 19
26 24 23 20 20 17 13 11 8 11 13 17 15 14 15 18 19 20 22 21 6 10 9 9 6 7 8 11 10 12 7 9 9 10 8 4 2 3 5 4 6 5 6 9 11
Wind_Direction
325 323 322 324 324 320 309 302 293 291 289 285 281 280 276 274 273 269 265 264 266 257 264 257 254 249 247 246 244 241 244 241 242 236 231 236 239 244 238 231 233 236 224 228 228
326 326 325 323 321 320 313 304 296 294 289 285 283 283 281 280 271 270 268 262 264 264 255 261 257 254 249 247 245 244 245 238 238 237 230 236 240 245 244 235 231 235 231 226 230
325 328 325 324 321 318 313 304 301 298 294 292 290 287 284 281 278 275 269 266 264 260 258 257 253 250 249 246 247 249 247 239 234 235 232 234 234 239 243 241 231 230 233 222 227
327 328 327 323 318 314 309 303 304 303 300 298 295 291 287 285 279 275 271 266 265 263 259 256 255 250 246 245 247 246 247 240 234 232 232 233 237 240 242 245 239 229 230 237 224
326 326 324 320 315 312 309 306 306 304 303 300 296 290 286 283 280 278 274 266 260 261 259 258 255 253 250 248 246 247 245 242 235 234 233 234 234 238 241 247 246 237 227 232 233
325 326 321 317 315 314 311 307 307 304 302 298 295 292 290 288 285 282 278 273 267 262 258 255 254 253 251 251 248 249 248 246 240 234 235 235 235 238 238 241 243 246 234 229 233
325 324 321 315 318 318 317 312 312 306 306 305 301 295 294 298 293 287 282 276 270 264 259 254 249 250 251 249 249 250 249 247 244 238 234 237 233 240 238 243 242 240 243 233 231
324 326 321 318 319 317 319 320 316 312 315 316 316 308 306 308 304 293 282 276 270 268 262 257 251 247 248 249 249 249 249 249 246 243 237 236 227 237 234 238 242 241 240 238 234
325 322 318 316 321 321 325 321 316 315 318 321 319 315 315 310 305 298 292 285 273 269 272 263 257 253 251 249 250 252 252 251 246 242 240 236 236 230 234 232 236 236 235 237 237
321 319 319 318 324 326 323 318 318 318 320 321 321 314 308 304 300 298 296 289 278 275 263 259 260 256 253 252 251 253 255 256 255 252 251 248 247 233 232 233 236 236 233 231 235
317 316 316 322 324 326 322 321 323 323 322 323 321 315 307 298 293 292 288 284 280 276 270 264 259 254 255 256 257 257 255 255 253 254 249 247 246 243 240 237 238 237 236 231 229
317 313 318 326 328 327 324 333 330 327 325 325 321 309 300 295 289 289 284 281 277 271 269 266 265 262 257 254 257 258 255 257 258 256 256 254 247 246 239 235 236 238 237 236 232
312 311 320 325 328 320 330 342 333 329 333 333 329 322 315 310 305 298 296 291 285 282 277 276 271 262 254 264 259 240 255 251 256 265 270 268 250 251 247 238 230 233 238 237 233
310 312 323 329 318 329 340 341 336 335 336 338 336 332 331 326 317 311 297 290 287 284 281 275 272 269 270 269 246 251 257 261 270 278 277 272 262 248 251 256 242 231 230 234 232
306 313 325 323 316 338 336 340 339 338 340 336 331 327 328 328 319 310 301 291 289 289 286 280 279 278 278 269 262 257 259 266 270 274 277 275 277 264 263 262 259 239 229 230 232
303 312 319 308 320 337 337 346 344 345 342 339 333 332 332 327 322 315 306 298 293 296 286 286 277 280 283 279 271 266 268 269 271 275 274 282 275 270 268 267 263 254 229 225 227
302 310 311 298 324 328 339 346 346 347 344 340 336 334 331 329 325 320 311 298 295 297 282 273 286 299 290 283 286 287 285 283 280 276 280 277 268 268 257 265 263 252 230 222 224
296 302 301 285 316 316 335 342 351 349 340 337 332 330 327 328 330 325 313 306 305 306 299 294 312 304 306 304 303 299 290 284 280 279 283 279 270 273 264 252 254 245 218 215 218
293 292 295 272 291 302 326 337 351 346 341 338 333 331 331 330 331 332 319 309 310 304 304 313 347 334 326 319 316 311 293 277 278 286 287 291 290 278 279 253 240 224 203 210 215
288 281 282 264 269 292 318 332 343 345 341 336 334 337 334 333 331 331 325 316 317 302 311 329 348 336 327 336 329 330 333 305 302 307 295 264 284 290 298 271 205 193 199 207 210
283 275 280 267 274 289 308 334 344 345 343 339 336 336 337 337 333 333 331 321 309 305 316 335 339 353 350 336 338 349 357 360 340 316 289 301 340 310 287 185 169 178 191 201 208
277 260 261 255 269 292 299 339 350 349 344 339 339 337 340 341 339 338 336 317 299 305 309 330 344 357 9 339 327 8 360 359 358 343 331 331 3 10 202 183 147 165 189 207 199
272 262 255 252 263 285 294 322 350 354 345 341 341 341 346 345 344 342 341 322 286 309 313 341 343 360 360 338 330 322 322 328 332 336 11 350 354 9 102 116 141 158 168 174 187
270 258 249 246 254 275 288 319 350 355 347 346 347 354 355 349 348 344 341 329 267 304 319 353 352 346 344 350 334 332 330 340 330 331 340 354 339 5 95 125 136 160 176 177 182
273 258 247 247 244 266 281 310 344 355 348 353 354 359 357 350 349 349 343 338 246 289 314 353 350 337 347 346 345 349 339 344 15 15 360 349 330 355 12 58 97 134 175 192 198
265 256 246 246 238 256 272 296 330 358 355 3 356 358 351 350 350 350 351 347 242 248 291 333 344 331 357 354 352 352 354 15 40 45 25 43 236 328 27 52 53 35 213 216 199
259 250 248 242 240 246 260 280 315 9 357 9 359 353 349 350 348 353 357 355 309 222 267 299 336 330 343 342 332 320 339 23 22 25 16 23 324 345 333 284 234 266 181 187 211
Height
5803 5801 5798 5796 5792 5789 5786 5783 5779 5777 5776 5774 5774 5773 5771 5770 5770 5770 5770 5769 5769 5771 5771 5772 5773 5776 5777 5779 5781 5783 5783 5791 5795 5796 5797 5796 5797 5799 5803 5808 5811 5814 5819 5821 5823
5799 5796 5793 5790 5785 5782 5779 5776 5773 5770 5767 5765 5766 5764 5762 5762 5761 5761 5762 5761 5761 5762 5762 5763 5765 5767 5769 5771 5771 5773 5778 5784 5787 5790 5791 5789 5791 5792 5796 5800 5804 5809 5811 5815 5819
5794 5792 5788 5785 5780 5776 5772 5768 5766 5763 5761 5758 5757 5755 5753 5752 5752 5753 5752 5753 5753 5753 5754 5754 5756 5758 5759 5762 5763 5765 5769 5776 5779 5781 5783 5783 5785 5787 5790 5793 5797 5802 5805 5808 5813
5789 5786 5783 5779 5773 5768 5766 5762 5760 5758 5756 5751 5748 5746 5742 5743 5743 5743 5743 5744 5743 5743 5744 5745 5746 5748 5750 5751 5754 5755 5759 5766 5771 5772 5775 5778 5779 5781 5783 5786 5790 5793 5798 5801 5806
5785 5782 5778 5774 5767 5762 5759 5758 5754 5751 5748 5744 5741 5738 5734 5734 5734 5733 5733 5734 5734 5734 5734 5736 5736 5738 5740 5742 5745 5746 5751 5756 5762 5765 5768 5769 5771 5773 5777 5780 5783 5786 5789 5794 5798
5780 5776 5771 5766 5761 5757 5754 5751 5747 5744 5740 5736 5733 5729 5725 5726 5725 5725 5724 5723 5723 5724 5725 5727 5728 5729 5731 5733 5735 5737 5742 5748 5753 5757 5759 5761 5765 5764 5773 5771 5775 5779 5782 5785 5790
5774 5770 5766 5760 5755 5750 5748 5746 5741 5736 5733 5730 5726 5722 5719 5719 5717 5716 5715 5715 5714 5715 5716 5717 5719 5721 5723 5724 5727 5729 5733 5736 5741 5746 5748 5750 5756 5759 5764 5764 5767 5772 5775 5779 5782
5771 5766 5761 5755 5750 5746 5743 5740 5736 5730 5728 5725 5720 5717 5714 5713 5712 5711 5709 5708 5707 5708 5709 5710 5712 5714 5715 5717 5718 5720 5723 5727 5733 5735 5738 5741 5751 5749 5752 5755 5759 5765 5768 5771 5774
5764 5760 5755 5749 5744 5743 5739 5736 5732 5726 5723 5721 5717 5713 5711 5708 5707 5705 5704 5703 5702 5702 5702 5703 5705 5707 5707 5708 5710 5712 5714 5717 5719 5721 5723 5730 5736 5736 5738 5744 5746 5752 5758 5764 5768
5761 5755 5750 5747 5742 5738 5735 5732 5728 5723 5720 5717 5714 5711 5707 5704 5700 5699 5698 5696 5696 5696 5696 5696 5697 5698 5697 5698 5701 5702 5704 5706 5708 5713 5714 5720 5717 5727 5728 5734 5738 5742 5747 5753 5759
5755 5750 5745 5741 5737 5734 5733 5729 5727 5722 5715 5713 5709 5705 5702 5699 5694 5692 5689 5689 5688 5689 5689 5688 5689 5687 5689 5690 5691 5693 5695 5695 5697 5698 5701 5705 5704 5714 5721 5727 5728 5733 5738 5743 5747
5751 5746 5740 5737 5735 5732 5729 5725 5722 5718 5712 5706 5702 5698 5694 5691 5688 5685 5684 5683 5681 5680 5680 5682 5681 5681 5681 5681 5682 5683 5683 5685 5686 5685 5686 5689 5692 5693 5704 5711 5717 5721 5726 5734 5740
5745 5741 5736 5732 5731 5728 5725 5721 5718 5712 5707 5701 5695 5692 5689 5686 5683 5679 5678 5676 5676 5675 5675 5675 5673 5673 5674 5673 5673 5673 5674 5675 5675 5676 5676 5674 5677 5683 5690 5693 5701 5708 5715 5721 5729
5740 5736 5732 5730 5729 5726 5722 5717 5714 5709 5703 5698 5693 5689 5685 5681 5678 5675 5672 5671 5670 5669 5669 5668 5667 5666 5667 5664 5666 5667 5664 5662 5664 5662 5663 5662 5660 5670 5675 5679 5687 5694 5698 5706 5713
5736 5733 5729 5727 5726 5723 5720 5714 5710 5706 5700 5696 5690 5685 5680 5677 5673 5670 5666 5664 5662 5662 5663 5662 5662 5661 5660 5657 5656 5657 5654 5653 5650 5650 5645 5651 5642 5657 5659 5665 5672 5676 5684 5690 5700
5731 5728 5725 5724 5722 5719 5716 5711 5708 5704 5696 5691 5686 5682 5677 5672 5667 5664 5660 5658 5656 5656 5656 5656 5655 5655 5652 5649 5646 5644 5642 5640 5636 5633 5620 5643 5623 5635 5642 5646 5652 5655 5666 5675 5683
5726 5725 5721 5720 5719 5716 5713 5709 5706 5699 5694 5688 5682 5677 5673 5668 5663 5659 5656 5653 5651 5651 5651 5651 5650 5647 5643 5641 5638 5634 5629 5623 5618 5613 5611 5617 5606 5614 5627 5628 5631 5633 5639 5655 5666
5721 5720 5716 5717 5714 5712 5708 5705 5701 5695 5689 5684 5679 5672 5667 5664 5659 5655 5651 5649 5647 5645 5644 5644 5645 5640 5637 5631 5625 5621 5616 5611 5604 5601 5601 5603 5595 5599 5597 5599 5597 5608 5618 5635 5649
5717 5715 5712 5713 5711 5708 5705 5701 5695 5691 5687 5680 5674 5669 5664 5660 5656 5651 5647 5646 5644 5641 5640 5636 5637 5629 5623 5620 5616 5610 5605 5601 5595 5595 5592 5592 5591 5587 5580 5577 5579 5592 5605 5622 5638
5711 5708 5705 5706 5704 5704 5701 5699 5692 5688 5684 5678 5672 5667 5660 5656 5653 5647 5643 5643 5641 5638 5635 5633 5628 5625 5620 5618 5613 5604 5600 5596 5593 5589 5587 5587 5582 5577 5572 5571 5574 5585 5597 5612 5628
5705 5703 5704 5705 5704 5701 5698 5695 5691 5686 5681 5675 5670 5663 5658 5654 5650 5644 5641 5639 5638 5634 5632 5629 5626 5623 5619 5614 5610 5607 5603 5598 5595 5591 5588 5584 5581 5574 5570 5571 5580 5589 5599 5610 5624
5697 5697 5697 5698 5699 5696 5695 5691 5688 5684 5678 5672 5667 5660 5655 5652 5647 5642 5638 5635 5634 5633 5632 5629 5624 5620 5617 5613 5610 5607 5605 5601 5598 5594 5588 5583 5579 5576 5573 5574 5580 5590 5605 5611 5621
5691 5693 5692 5693 5694 5692 5693 5688 5684 5681 5676 5669 5664 5657 5653 5650 5646 5640 5636 5633 5632 5630 5629 5627 5624 5619 5617 5616 5612 5606 5602 5599 5595 5593 5591 5586 5582 5580 5577 5579 5587 5598 5606 5613 5621
5686 5688 5687 5688 5687 5688 5689 5686 5682 5679 5673 5667 5661 5656 5651 5648 5644 5639 5634 5630 5629 5627 5626 5623 5620 5618 5616 5614 5609 5606 5601 5597 5593 5592 5590 5587 5586 5585 5587 5590 5596 5602 5609 5614 5620
5681 5684 5681 5682 5683 5684 5684 5682 5679 5677 5672 5666 5660 5655 5651 5647 5643 5638 5633 5628 5627 5625 5623 5622 5620 5618 5615 5613 5609 5606 5601 5598 5595 5593 5593 5592 5590 5589 5588 5592 5599 5605 5611 5616 5619
5674 5675 5674 5677 5676 5679 5678 5678 5677 5674 5670 5664 5659 5654 5651 5646 5643 5637 5632 5626 5625 5624 5622 5621 5619 5616 5614 5612 5610 5607 5605 5602 5598 5595 5593 5595 5597 5594 5598 5600 5602 5605 5609 5613 5617
5667 5667 5668 5671 5672 5674 5674 5675 5674 5671 5668 5663 5658 5653 5650 5646 5642 5637 5631 5626 5622 5622 5621 5620 5619 5617 5616 5614 5612 5611 5607 5604 5602 5601 5600 5600 5599 5599 5601 5603 5606 5608 5609 5612 5614